Airfield :







YOU CAN JOIN US ON...

 
LOGIN :

Register | Disclaimer

   EN    FR    IT 

 









Legend :    VFR   Marginal VFR   IFR   Intensive IFR   Very Intensive IFR
Visi :
Ceiling :
>= 8 km
>= 3000ft
5 to 8 km
1000 to 3000 ft
1500m to 5 km
500 to 1000 ft
800 to 1500m
200 to 500 ft
< 800m
< 200 ft
Symbols :   Thunderstorms  Fog  Heavy snow  Heavy precipitations  Wind > 20 kt






- Airport Elevation : 29 ft
- IATA code : CUR


TNCC - Willemstad/Hato Int.

CURRENT METAR :
  • 172100Z 08011KT 9999 FEW022 28/21 Q1011 NOSIG

EXPIRED METARs :
  • 172000Z 09010KT 9999 FEW022 29/22 Q1011
  • 171900Z 09010KT 9999 FEW024 28/22 Q1011 NOSIG

TAF TAF TNCC
Valid from the 17 at 18:00 until the 18 at 18:00 UTC


171700Z 1718/1818 09013KT 9999 FEW020
TEMPO 1809/1817 4000 SHRA BKN014 BKN025
TNCF FIR / North America



MET'MAP, your aeronautical weather chart ! - Copyright ORBIFLY December 2007 - Disclaimer

ORBIFLY MET'MAP TEAM :

Programming & Development : Alexandra Zaïnal
Concept & original design : Baudouin d'Aumeries
Assistance for programming : Marc-Olivier Méhu
Technical & hardware support : Manuel Goepfert

Contact : metmap@orbifly.com




SOURCES & CREDITS :

   NOAA